User: anonymous   Login
Location: Unspecified
(0.0000°N, 0.0000°E)
Time: 18:02:26
(UTC+00:00)
Language:

SLDCOM 1 - Orbit

View from above orbital plane
View from above orbital plane
View from above satellite
View from above satellite

Ground track
Ground track

The orbit data is extracted from the following two-line orbital elements,

1 20641U 90050A   17316.86396369 0.00000000  00000-0  00000-0 0    08
2 20641  63.4329  56.8697 4052029 264.6839  49.0918  6.02570200    06
Epoch (UTC): 12 November 2017 20:44:06
Eccentricity: 0.4052029
inclination: 63.4329°
perigee height: 1209 km
apogee height: 11547 km
right ascension of ascending node: 56.8697°
argument of perigee: 264.6839°
revolutions per day: 6.02570200
mean anomaly at epoch: 49.0918°
orbit number at epoch: 0

The dashed part of the orbit path shows where the satellite is in the earth's shadow,  

DLR